Regional Weather Roundup
Issued by NWS Upton, NY

Current Version | Previous Version | Text Only | Print | Product List | Glossary Off
Versions: 1 2 3 4 5 6 7 8 9 10 11 12 13 14 15 16 17 18 19 20 21 22 23 24 25 26 27

000
ASUS41 KOKX 200108
RWROKX

REGIONAL WEATHER ROUNDUP
NATIONAL WEATHER SERVICE NEW YORK NY
900 PM EDT SAT AUG 19 2017

NOTE: "FAIR" INDICATES FEW OR NO CLOUDS BELOW 12,000 FEET WITH NO
SIGNIFICANT WEATHER AND/OR OBSTRUCTIONS TO VISIBILITY.

NYZ071-072-176-178-NJZ106-104-200200-
NEW YORK CITY METRO AREA

CITY           SKY/WX    TMP DP  RH WIND       PRES   REMARKS
Central Park   CLEAR     80  63  55 VRB5      29.89R
Bronx Bot Gard   N/A     82  61  47 W3        29.87S
LaGuardia APRT PTCLDY    84  64  50 SW10      29.85R
Kennedy INTL   PTCLDY    81  68  64 SW10      29.87R
Breezy Point     N/A     77 N/A N/A W7          N/A
Newark/Liberty PTCLDY    80  65  59 SW8       29.86R
Teterboro      CLEAR     82  64  54 SW7       29.84R
$$

NYZ177-179-078>081-200200-
LONG ISLAND NEW YORK

CITY           SKY/WX    TMP DP  RH WIND       PRES   REMARKS
Jones Beach      N/A     77 N/A N/A SW3         N/A
Matinecock PT    N/A     79 N/A N/A SW12        N/A
Farmingdale    CLEAR     78  69  73 SW9       29.86R
MacArthur/ISP  PTCLDY    77  70  79 SW7       29.86R
Shirley        CLEAR     78  69  73 SW7       29.86R
Mt Sinai Harb    N/A    N/A N/A N/A S6          N/A
Westhampton    CLEAR     75  65  70 SW9       29.88R
East Hampton   FAIR      74  67  78 SW5       29.85S
Montauk          N/A     76  66  71 VRB5      29.87R
$$

NYZ052-065-067-200200-
HUDSON VALLEY

CITY           SKY/WX    TMP DP  RH WIND       PRES   REMARKS
White Plains   CLEAR     76  64  66 W3        29.86R
Larchmont Harb   N/A     81 N/A N/A SW8         N/A
Croton On Huds   N/A     81 N/A N/A SW3         N/A
Newburgh       CLEAR     73  68  83 CALM      29.87R
Montgomery     PTCLDY    71  66  84 CALM      29.85R
Poughkeepsie   PTCLDY    73  65  75 CALM      29.84R
Albany         MOCLDY    72  64  76 CALM      29.84R
$$

NJZ001-105-106-008-010-013-015-019>022-104-200200-
NEW JERSEY

CITY           SKY/WX    TMP DP  RH WIND       PRES   REMARKS
Newark/Liberty PTCLDY    80  65  59 SW8       29.86R
Teterboro      CLEAR     82  64  54 SW7       29.84R
Caldwell       CLEAR     78  67  68 CALM      29.86R
Somerville     CLEAR     72  70  93 CALM      29.85S
Linden         FAIR      81  63  54 CALM      29.86S
Perth Amboy      N/A     81 N/A N/A W6          N/A
Sussex         CLEAR     72  69  90 CALM      29.87R
Andover          N/A     70  68  93 CALM      29.89R
Trenton        CLEAR     79  65  62 SW3       29.87S
Millville      CLEAR     77  73  87 CALM      29.90R
Atlantic City  CLEAR     80  69  69 SW5       29.90R
Wrightstown    CLEAR     75  67  76 W3        29.86R
Toms River     CLEAR     74  69  85 SW3       29.89R
Belmar         CLEAR     79  67  66 SW6       29.89R
$$

PAZ047>061-062-071-200200-
EASTERN PENNSYLVANIA

CITY           SKY/WX    TMP DP  RH WIND       PRES   REMARKS
Philadelphia   PTCLDY    82  67  60 SW8       29.89R
Allentown      CLEAR     75  65  70 SW8       29.89R
Scranton       MOCLDY    76  64  66 NW18G28   29.93R
$$

CTZ002-004>006-009-010-012-RIZ004-006-007-MAZ004-011-015-200200-
SOUTHERN NEW ENGLAND
 IN CT

CITY           SKY/WX    TMP DP  RH WIND       PRES   REMARKS
Bradley INTL   PTCLDY    76  65  68 SW6       29.83R
Hartford       CLEAR     76  67  73 S5        29.83R
Danbury        CLEAR     72  68  87 CALM      29.87R
Wtrbury/Oxford CLEAR     74  66  76 CALM      29.88R
Norwalk Harbor   N/A     77 N/A N/A S7          N/A
Bridgeport     CLEAR     79  70  74 SW8       29.84R
Meriden        CLEAR     72  67  84 CALM      29.84R
New Haven      PTCLDY    78  68  71 SW6       29.84R
Chester        FAIR      75  66  73 SW5       29.86R
Groton         CLEAR     72  68  87 SE3       29.84R
Wilimantic     CLEAR     74  67  78 CALM      29.85R

 IN RI

CITY           SKY/WX    TMP DP  RH WIND       PRES   REMARKS
Providence     PTCLDY    77  68  73 SW7       29.84R
Block Island   CLEAR     74  67  78 SW13      29.86R
Westerly       CLEAR     73  68  84 CALM      29.85R
 IN MA

CITY           SKY/WX    TMP DP  RH WIND       PRES   REMARKS
Boston         PTCLDY    66  65  96 CALM      29.82R
Worcester      CLEAR     72  61  68 W7        29.87R
Westfield      CLEAR     72  67  84 CALM      29.84R
Provincetown   CLEAR     72  68  87 SW9       29.83R
Nantucket      FOG       68  68 100 SW7       29.86R VSB 1/2
$$

ANZ330-335-338-340-345-350-353-355-200200-
COASTAL MARINE OBSERVATIONS


STATION/POSITION TIME  SKY/WX   TEMP    WIND        PRES    VSBY  WAVE
                                AIR SEA DIR/SP/G                  HT/PER
                 (UTC)          (F)     (DEG/KT/KT) (MB)    (MI)  (FT/S)
NY HARB ENTRANCE 2350            78 78  210/ 10/ 14 1010.2          3/ 6
GREAT SOUTH BAY  0030            78 79  220/ 14/ 17   N/A
23 SSW MONTAUK P 2350            74 73              1011.1          3/ 7
15 E BARNEGAT LI 0030               78                N/A           3/ 6
HUDSON CANYON    2350            75 75  200/  6/  6 1010.7          3/ 6
KINGS POINT      0030            81 74  310/  8/ 11 1010.7
EXECUTION ROCKS  NOT AVBL
WESTERN LI SOUND NOT AVBL
CENTRAL LI SOUND NOT AVBL
EASTERN LI SOUND NOT AVBL
ROBBINS REEF     0030                   240/  6/  7 1011.5
$$


>>>>>>>>>>>>>>>>>>>>>>>>>>>> KEY <<<<<<<<<<<<<<<<<<<<<<<<<<<
>                                                          <
>     SKY/WX - Sky Condition/Present Weather               <
>     TMP    - Temperature in Fahrenheit                   <
>     DP     - Dew Point in Fahrenheit                     <
>     RH     - Relative Humidity in Percent                <
>     WIND   - Direction (from) and Speed in MPH           <
>     PRES   - Mean Sea Level Pressure (inches of Hg)      <
>     WCI    - Wind Chill Index                            <
>     VSB    - VISIBILITY IN MILES                         <
>     HX     - HEAT INDEX                                  <
>     TC     - TEMPERATURE IN CELSIUS                      <
>     VRB    - VARIABLE WIND DIRECTION                     <
>                                                          <
>>>>>>>>>>>>>>>>>>>>>>>>>>>> KEY <<<<<<<<<<<<<<<<<<<<<<<<<<<




USA.gov is the U.S. government's official web portal to all federal, state and local government web resources and services.